Date String (YYYY-MM-DD hh:mm:ss) UTC,Instrument flags,Ambient pressure (hPa),Sample flow (lpm),Bypass flow (lpm),Sample temperature (°C),Ambient temperature (°C),ASC tube jacket temperature (°C),LED temperature (°C),Box temperature (°C),Sample RH (%),Span deviation,Mass concentration (μg/m³),Mass concentration (μg/m³),Mass concentration (μg/m³)
DateTimeUTC,F1_M11,P_M11,Q1_M11,Q2_M11,T1_M11,T2_M11,T3_M11,T4_M11,T5_M11,U1_M11,ZSPAN_M11,X0_M11,X2_M11,X1_M11
2022-08-30 02:00:00,,0830.6,5.00,0.00,29.6,28.6,00.0,38.1,31.5,20.7,0000.0,0017.28,0006.26,0005.14
2022-08-30 02:01:00,,0830.6,5.00,0.00,29.6,28.7,00.0,38.2,31.6,20.9,0000.0,0017.10,0006.29,0005.15
2022-08-30 02:02:00,,0830.6,4.99,0.00,29.6,27.6,00.0,38.2,31.6,20.8,0000.0,0015.78,0006.28,0005.16
2022-08-30 02:03:00,,0830.6,5.00,0.00,29.6,26.3,00.0,38.1,31.4,21.0,0000.0,0015.96,0006.35,0005.18
2022-08-30 02:04:00,,0830.6,5.01,0.00,29.5,26.3,00.0,38.1,31.3,20.9,0000.0,0015.54,0006.35,0005.19
2022-08-30 02:05:00,,0830.6,5.00,0.00,29.4,26.5,00.0,38.1,31.1,21.0,0000.0,0015.96,0006.41,0005.21
2022-08-30 02:06:00,,0830.7,4.99,0.00,29.4,26.9,00.0,38.0,31.1,21.2,0000.0,0015.78,0006.44,0005.24
2022-08-30 02:07:00,,0830.7,5.00,0.00,29.4,27.2,00.0,38.0,31.2,21.2,0000.0,0015.66,0006.50,0005.26
2022-08-30 02:08:00,,0830.8,5.00,0.00,29.4,27.5,00.0,38.0,31.2,21.2,0000.0,0015.76,0006.56,0005.27
2022-08-30 02:09:00,,0830.8,5.01,0.00,29.4,27.8,00.0,38.0,31.3,21.2,0000.0,0015.51,0006.55,0005.27
2022-08-30 02:10:00,,0830.8,5.01,0.00,29.4,28.0,00.0,38.0,31.3,21.3,0000.0,0016.21,0006.55,0005.27
2022-08-30 02:11:00,,0830.8,5.00,0.00,29.4,28.2,00.0,38.1,31.4,21.3,0000.0,0016.06,0006.58,0005.28
2022-08-30 02:12:00,,0830.8,4.98,0.00,29.5,28.3,00.0,38.1,31.4,21.3,0000.0,0016.95,0006.59,0005.28
2022-08-30 02:13:00,,0830.8,5.01,0.00,29.5,28.5,00.0,38.1,31.5,21.3,0000.0,0018.73,0006.64,0005.29
2022-08-30 02:14:00,,0830.8,5.01,0.00,29.6,28.6,00.0,38.2,31.5,21.4,0000.0,0018.99,0006.71,0005.30
2022-08-30 02:15:00,,0830.8,5.02,0.00,29.6,28.8,00.0,38.2,31.6,21.3,0000.0,0018.72,0006.74,0005.30
2022-08-30 02:16:00,,0830.7,4.99,0.00,29.7,28.2,00.0,38.2,31.6,21.3,0000.0,0019.47,0006.73,0005.31
2022-08-30 02:17:00,,0830.7,5.00,0.00,29.6,26.8,00.0,38.2,31.4,21.4,0000.0,0018.78,0006.74,0005.30
2022-08-30 02:18:00,,0830.8,4.98,0.00,29.5,26.2,00.0,38.1,31.3,21.5,0000.0,0018.30,0006.72,0005.30
2022-08-30 02:19:00,,0830.8,5.01,0.00,29.5,26.4,00.0,38.1,31.2,21.5,0000.0,0017.86,0006.74,0005.32
2022-08-30 02:20:00,,0830.9,5.00,0.00,29.4,26.7,00.0,38.1,31.1,21.7,0000.0,0018.06,0006.75,0005.35
2022-08-30 02:21:00,,0830.9,4.99,0.00,29.4,27.0,00.0,38.0,31.1,21.6,0000.0,0017.32,0006.76,0005.38
2022-08-30 02:22:00,,0830.9,5.01,0.00,29.3,27.3,00.0,38.0,31.1,21.6,0000.0,0017.36,0006.71,0005.38
2022-08-30 02:23:00,,0830.9,5.00,0.00,29.4,27.6,00.0,38.0,31.2,21.6,0000.0,0016.91,0006.73,0005.37
2022-08-30 02:24:00,,0830.9,5.00,0.00,29.4,27.9,00.0,38.0,31.3,21.6,0000.0,0015.70,0006.73,0005.36
2022-08-30 02:25:00,,0830.9,5.00,0.00,29.4,28.1,00.0,38.1,31.3,21.6,0000.0,0016.26,0006.64,0005.35
2022-08-30 02:26:00,,0830.9,5.00,0.00,29.4,28.3,00.0,38.1,31.4,21.6,0000.0,0016.53,0006.60,0005.35
2022-08-30 02:27:00,,0830.9,4.99,0.00,29.5,28.4,00.0,38.1,31.4,21.5,0000.0,0016.10,0006.63,0005.35
2022-08-30 02:28:00,,0830.9,5.01,0.00,29.5,28.5,00.0,38.1,31.5,21.4,0000.0,0016.52,0006.66,0005.35
2022-08-30 02:29:00,,0831.0,5.00,0.00,29.6,28.6,00.0,38.2,31.5,21.4,0000.0,0016.83,0006.65,0005.34
2022-08-30 02:30:00,,0831.0,5.01,0.00,29.6,28.7,00.0,38.2,31.6,21.3,0000.0,0016.96,0006.61,0005.34
2022-08-30 02:31:00,,0831.0,5.00,0.00,29.7,28.6,00.0,38.2,31.6,21.3,0000.0,0016.72,0006.63,0005.32
2022-08-30 02:32:00,,0831.0,4.98,0.00,29.6,27.4,00.0,38.2,31.5,21.3,0000.0,0016.36,0006.59,0005.31
2022-08-30 02:33:00,,0831.0,5.00,0.00,29.6,26.2,00.0,38.2,31.3,21.4,0000.0,0016.81,0006.69,0005.33
2022-08-30 02:34:00,,0831.0,5.01,0.00,29.5,26.1,00.0,38.1,31.2,21.5,0000.0,0017.36,0006.68,0005.35
2022-08-30 02:35:00,,0831.0,4.99,0.00,29.4,26.4,00.0,38.1,31.0,21.6,0000.0,0017.60,0006.66,0005.36
2022-08-30 02:36:00,,0831.0,5.00,0.00,29.3,26.8,00.0,38.1,31.1,21.7,0000.0,0018.04,0006.69,0005.36
2022-08-30 02:37:00,,0831.0,5.01,0.00,29.3,27.1,00.0,38.0,31.1,21.7,0000.0,0017.35,0006.71,0005.36
2022-08-30 02:38:00,,0831.0,5.00,0.00,29.3,27.4,00.0,38.1,31.2,21.7,0000.0,0017.42,0006.65,0005.35
2022-08-30 02:39:00,,0831.0,5.00,0.00,29.4,27.7,00.0,38.1,31.2,21.9,0000.0,0018.18,0006.60,0005.33
2022-08-30 02:40:00,,0831.1,5.01,0.00,29.4,27.9,00.0,38.1,31.3,21.9,0000.0,0018.35,0006.56,0005.33
2022-08-30 02:41:00,,0831.1,5.01,0.00,29.4,28.1,00.0,38.1,31.3,21.8,0000.0,0018.46,0006.60,0005.32
2022-08-30 02:42:00,,0831.2,4.98,0.00,29.4,28.3,00.0,38.1,31.4,21.7,0000.0,0019.61,0006.57,0005.31
2022-08-30 02:43:00,,0831.2,5.00,0.00,29.5,28.4,00.0,38.1,31.4,21.7,0000.0,0020.50,0006.59,0005.30
2022-08-30 02:44:00,,0831.2,5.00,0.00,29.5,28.6,00.0,38.1,31.5,21.7,0000.0,0020.52,0006.51,0005.29
2022-08-30 02:45:00,,0831.2,5.00,0.00,29.6,28.6,00.0,38.2,31.5,21.6,0000.0,0019.63,0006.45,0005.27
2022-08-30 02:46:00,,0831.2,5.01,0.00,29.6,28.7,00.0,38.2,31.6,21.5,0000.0,0019.11,0006.42,0005.27
2022-08-30 02:47:00,,0831.2,4.99,0.00,29.7,28.8,00.0,38.2,31.7,21.5,0000.0,0017.59,0006.39,0005.26
2022-08-30 02:48:00,,0831.2,4.99,0.00,29.7,28.2,00.0,38.3,31.6,21.4,0000.0,0017.66,0006.40,0005.26
2022-08-30 02:49:00,,0831.2,5.00,0.00,29.7,27.1,00.0,38.2,31.5,21.4,0000.0,0017.01,0006.43,0005.27
2022-08-30 02:50:00,,0831.2,5.00,0.00,29.6,26.9,00.0,38.2,31.5,21.4,0000.0,0016.49,0006.48,0005.28
2022-08-30 02:51:00,,0831.2,4.99,0.00,29.6,27.1,00.0,38.2,31.3,21.6,0000.0,0016.84,0006.49,0005.29
2022-08-30 02:52:00,,0831.2,5.01,0.00,29.5,27.4,00.0,38.2,31.3,21.7,0000.0,0016.81,0006.48,0005.28
2022-08-30 02:53:00,,0831.2,5.00,0.00,29.5,27.7,00.0,38.2,31.4,21.8,0000.0,0016.32,0006.50,0005.30
2022-08-30 02:54:00,,0831.3,5.00,0.00,29.5,27.9,00.0,38.2,31.4,21.7,0000.0,0016.26,0006.50,0005.32
2022-08-30 02:55:00,,0831.3,5.01,0.00,29.6,28.2,00.0,38.2,31.5,21.7,0000.0,0016.16,0006.50,0005.32
2022-08-30 02:56:00,,0831.3,5.00,0.00,29.6,28.3,00.0,38.2,31.5,21.9,0000.0,0016.23,0006.56,0005.34
2022-08-30 02:57:00,,0831.3,4.99,0.00,29.6,28.5,00.0,38.2,31.5,21.7,0000.0,0017.10,0006.62,0005.35
2022-08-30 02:58:00,,0831.3,4.99,0.00,29.7,28.6,00.0,38.3,31.6,21.7,0000.0,0017.72,0006.74,0005.37
2022-08-30 02:59:00,,0831.4,5.00,0.00,29.7,28.7,00.0,38.3,31.6,21.8,0000.0,0018.36,0006.77,0005.40
